Location: Austin
(30.3000°N, 97.7500°W)
Time: 22:19:40
(UTC-05:00)

Meteor 2-4 Rocket - Pass Details

Date: 05 September 2024
Orbit: 799 x 906 km, 81.2° (Epoch: 14 September)

Event Time Altitude Azimuth Distance (km) Brightness Sun altitude
Rises 20:39:28 0° 3° (N) 3,535 7.1 -11.7°
Reaches altitude 10° 20:42:09 10° 11° (NNE) 2,592 6.3 -12.3°
Maximum altitude 20:47:35 37° 78° (ENE) 1,378 4.4 -13.4°
Enters shadow 20:52:02 14° 139° (SE) 2,262 5.4 -14.3°
